User: anonymous   Login
Location: ??????
(42.0089°N, 44.3281°E)
Time: 03:09:19
(UTC+00:00)
Language:

MOS 1-B - Orbit

View from above orbital plane
View from above orbital plane
View from above satellite
View from above satellite

Ground track
Ground track

The orbit data is extracted from the following two-line orbital elements,

1 20478U 90013A   22019.49545650  .00000011  00000-0  42667-4 0  9997
2 20478  99.4214  39.4680 0004874 231.7782 128.2940 13.95554923547474
Epoch (UTC): 19 January 2022 11:53:27
Eccentricity: 0.0004874
inclination: 99.4214°
perigee height: 905 km
apogee height: 913 km
right ascension of ascending node: 39.4680°
argument of perigee: 231.7782°
revolutions per day: 13.95554923
mean anomaly at epoch: 128.2940°
orbit number at epoch: 54747

The dashed part of the orbit path shows where the satellite is in the earth's shadow,  

DLR